173  
ASUS42 KTBW 162217  
RWRFL  
FLORIDA REGIONAL WEATHER ROUNDUP  
NATIONAL WEATHER SERVICE TAMPA BAY RUSKIN FL  
600 PM EDT MON SEP 16 2019  
 
NOTE: "FAIR" INDICATES FEW OR NO CLOUDS BELOW 12,000 FEET WITH NO  
SIGNIFICANT WEATHER AND/OR S TO VISIBILITY
.  
 
FLZ001>010-012>015-112-114-115-162300-  
PANHANDLE FLORIDA  
 
CITY SKY/WX TMP DP RH WIND PRES REMARKS
 
PENSACOLA NOT AVBL  
PENSACOLA NAS PTSUNNY 87 77 72 S8 29.98S HX 99  
CRESTVIEW FAIR 89 71 55 W9 29.98F HX 95  
DUKE FIELD FAIR 88 73 61 W8 29.97F HX 96  
VALPARAISO FAIR 87 73 62 SW6 29.97F HX 95  
MARY ESTHER FAIR 85 76 74 SW6 29.96F HX 95  
TRI COUNTY FAIR 97 60 29 E5 29.96F HX 97  
PANAMA CITY FAIR 89 73 59 SW8 29.96S HX 97  
TYNDALL AFB FAIR 86 74 67 W8 29.96S  
APALACHICOLA FAIR 87 73 62 SW9 29.97S  
 
STATION/POSITION SKY/WX TEMP WIND PRES WAVE SWELL
 
AIR SEA DIR/SP/G HT/PER HT/PER  
(F) (DEG/KT/KT) (MB) (FT/S) (FT/S)  
30.1N 87.6W 83 86 70/ 2/ 4 1015.5F 1/ 5 2/ 5  
29.2N 88.2W 84 110/ 6/ 8 1015.5S 2/ 6 2/ 6  
28.8N 86.0W 86 110/ 2/ 4 1015.5R 2/ 5 2/ 5  
PANAMA CITY BEAC 84 87 270/ 10/ 11 1015.5S  
TOWER C 84 230/ 3/ 3 1015.2R  
28.5N 84.5W 83 350/ 6/ 8 1015.5R 1/ 4  
 

 
FLZ011-016>038-118-127-128-134-139-239-162300-  
NORTH FLORIDA  
 
CITY SKY/WX TMP DP RH WIND PRES REMARKS
 
MARIANNA FAIR 95 63 34 VRB6 29.95S HX 96  
TALLAHASSEE FAIR 93 72 50 VRB5 29.94F HX 101  
PERRY FAIR 93 70 46 NE8 29.95S HX 98  
LIVE OAK SUNNY 91 68 46 NE5 29.93F HX 95  
CROSS CITY N/A 90 72 56 NW6 29.94S HX 97  
LAKE CITY FAIR 90 68 48 N7 29.94S  
GAINESVILLE FAIR 89 68 49 NE3 29.95S  
WILLISTON FAIR 92 65 41 N7 29.93S  
PALATKA FAIR 86 66 51 NE9 29.94S  
MAYPORT NAS FAIR 86 71 60 NE12 29.94S  
JACKSONVILLE FAIR 88 70 55 E10 29.93R  
JAX NAS FAIR 89 68 49 NE8 29.94S  
JAX CECIL SUNNY 93 70 46 N7 29.93S HX 99  
FERNANDINA BEA FAIR 85 71 61 E9 29.94S  
ST AUGUSTINE FAIR 84 32 15 N10 29.95S  
PALM COAST MOSUNNY 84 73 70 N12G23 29.94S  
 
STATION/POSITION SKY/WX TEMP WIND PRES WAVE SWELL
 
AIR SEA DIR/SP/G HT/PER HT/PER  
(F) (DEG/KT/KT) (MB) (FT/S) (FT/S)  
SHELL POINT NOT AVBL  
KEATON BEACH 86 280/ 6/ 9 1014.4F  
CEDAR KEY 86 300/ 12/ 16 1014.0F  
FERNANDINA 91 85 80/ 3/ 11 1014.5F  
30.7N 81.3W 83 N/A 5/10 2/11  
MAYPORT 83 84 40/ 11/ 13 1014.5S  
31.4N 80.9W 84 83 50/ 6/ 8 1013.1F 5/11 5/11  
ST AUGUSTINE 82 84 360/ 14/ 15 1013.9F  
 

 
FLZ040-043>046-052-053-057-058-063-144-162300-  
INTERIOR CENTRAL FLORIDA  
 
CITY SKY/WX TMP DP RH WIND PRES REMARKS
 
OCALA FAIR 91 69 48 N8 29.94S HX 96  
LEESBURG FAIR 93 69 45 NW12 29.93R HX 98  
SANFORD FAIR 88 73 61 N15 29.91S HX 95  
ORLANDO EXEC PTSUNNY 90 73 57 N10 29.91S HX 98  
ORLANDO INTL FAIR 90 73 57 N16 29.90S HX 98  
KISSIMMEE FAIR 93 73 52 E13 29.91S HX 102  
WINTER HAVEN FAIR 93 71 48 N9 29.92S HX 100  
LAKELAND MOSUNNY 91 70 49 NW7 29.92S HX 97  
BARTOW FAIR 93 72 49 NW10 29.90 HX 100  
SEBRING FAIR 92 71 50 NW13 29.90S HX 99  
OKEECHOBEE FAIR 90 72 55 N7 29.88S HX 96  
 

 
FLZ041-047-054-059-064-141-147-162300-  
EAST CENTRAL FLORIDA  
 
CITY SKY/WX TMP DP RH WIND PRES REMARKS
 
ORMOND BEACH MOSUNNY 82 77 83 N14G20 29.94R  
DAYTONA BEACH FAIR 84 75 74 N14G26 29.93S  
DELAND FAIR 86 73 66 N14G20 29.92S  
NEW SMYRNA BEA MOSUNNY 84 75 74 N16G28 29.94S  
JFK SPACE CTR MOSUNNY 84 75 73 N15G21 29.91S  
TITUSVILLE MOSUNNY 90 75 62 N17G23 29.92S HX 100  
CAPE CANAVERAL FAIR 85 80 83 N16G23 29.89S HX 99  
PATRICK AFB FAIR 86 77 75 N15G24 29.90S HX 97  
MELBOURNE FAIR 88 75 65 N17 29.89S HX 97  
VERO BEACH FAIR 87 76 69 N14G26 29.89F HX 97  
FT PIERCE FAIR 84 74 71 N9G17 29.89S  
STUART MOSUNNY 86 75 70 N12G21 29.90S HX 95  
 
STATION/POSITION SKY/WX TEMP WIND PRES WAVE SWELL
 
AIR SEA DIR/SP/G HT/PER HT/PER  
(F) (DEG/KT/KT) (MB) (FT/S) (FT/S)  
28.5N 80.2W 83 85 330/ 23/ 27 1012.6F  
28.9N 78.5W 82 81 320/ 19/ 23 1010.6R 10/11 7/11  
TRIDENT PIER 85 84 350/ 14/ 23 1014.1F  
28.4N 80.5W 83 N/A 4/11 2/11  
27.5N 80.2W 84 N/A 6/11 3/11  
 

 
FLZ050-056-061-142-242-148-248-149-249-151-251-155-255-  
160-260-162300-  
WEST CENTRAL FLORIDA  
 
CITY SKY/WX TMP DP RH WIND PRES REMARKS
 
CRYSTAL RIVER FAIR 88 73 62 W8G17 29.93S HX 96  
INVERNESS FAIR 91 70 49 NE8 29.93S HX 97  
BROOKSVILLE FAIR 90 73 57 NW13 29.94R HX 98  
CLEARWATER AIR FAIR 84 73 70 NW13 29.94S  
ST PETE CLEARW FAIR 89 72 56 NW14 29.93S HX 96  
TAMPA INTL FAIR 89 73 59 NW13G25 29.93S HX 97  
TAMPA EXEC LGT RAIN 86 77 74 NE5 29.93R HX 97  
PLANT CITY PTSUNNY 90 77 66 NW12G17 29.94S HX 102  
MACDILL AFB FAIR 88 74 62 NW10 29.93S HX 96  
PETER O KNIGHT PTSUNNY 90 77 66 W7 29.93S HX 102  
ST PETERSBURG FAIR 87 73 62 NW10 29.91S  
SARASOTA FAIR 89 72 56 NW15 29.91S HX 96  
VENICE FAIR 88 77 70 NW14 29.93S HX 100  
 
STATION/POSITION SKY/WX TEMP WIND PRES WAVE SWELL
 
AIR SEA DIR/SP/G HT/PER HT/PER  
(F) (DEG/KT/KT) (MB) (FT/S) (FT/S)  
27.3N 84.2W 86 N/A 1/ 4  
CLEARWATER BEACH 84 87 300/ 12/ 14 1014.2R  
MIDDLE TAMPA BAY 84 310/ 14/ 16 1013.8R  
VENICE 85 86 310/ 15/ 16 1013.4S  
 

 
FLZ066-069-070-075>078-162-262-165-265-162300-  
SOUTHWEST FLORIDA AND KEYS  
 
CITY SKY/WX TMP DP RH WIND PRES REMARKS
 
PUNTA GORDA LGT RAIN 87 75 67 W15 29.92S HX 96  
FT MYERS FAIR 88 71 57 NW12 29.91S  
SOUTHWEST INTL FAIR 88 74 63 W10 29.91S HX 96  
NAPLES FAIR 89 75 63 NW14 29.92S HX 99  
MARCO ISLAND FAIR 88 75 65 NW10 29.93R HX 97  
IMMOKALEE LGT RAIN 86 75 70 W7G13 29.89R HX 95  
MARATHON FAIR 89 77 67 NW8 29.92S HX 101  
KEY WEST NAS FAIR 89 75 63 NW12 29.93S HX 99  
KEY WEST INTL FAIR 89 79 72 NW13 29.93F HX 104  
 
STATION/POSITION SKY/WX TEMP WIND PRES WAVE SWELL
 
AIR SEA DIR/SP/G HT/PER HT/PER  
(F) (DEG/KT/KT) (MB) (FT/S) (FT/S)  
NAPLES 85 89 300/ 11/ 14 1013.1F  
26.0N 85.6W 86 87 290/ 6/ 8 1015.1R 2/ 5 2/ 5  
DRY TORTUGAS 85 330/ 9/ 10 1014.2S  
SAND KEY 85 320/ 13/ 15 1012.6F  
SOMBRERO KEY 85 310/ 11/ 13 1013.6S  
LONG KEY 86 1012.2F  
 

 
FLZ067-068-071>074-168-172>174-162300-  
SOUTHEAST FLORIDA  
 
CITY SKY/WX TMP DP RH WIND PRES REMARKS
 
W PALM BEACH PTSUNNY 86 77 74 N10 29.89S HX 97  
FT LAUDER-EXEC FAIR 93 71 48 NW9 29.88S HX 100  
FT LAUDERDALE LGT RAIN 89 74 60 NW7 29.88R HX 98  
POMPANO BEACH PTSUNNY 89 76 65 NE13 29.88R HX 100  
PEMBROKE PINES FAIR 93 72 50 W9 29.90S HX 101  
OPA LOCKA PTSUNNY 93 72 50 N8 29.89S HX 101  
MIAMI FAIR 94 70 45 N7 29.89S HX 100  
WEST KENDALL FAIR 93 74 53 NW9 29.88S HX 103  
HOMESTEAD FAIR 87 74 66 SW10 29.88S HX 95  
 
STATION/POSITION SKY/WX TEMP WIND PRES WAVE SWELL
 
AIR SEA DIR/SP/G HT/PER HT/PER  
(F) (DEG/KT/KT) (MB) (FT/S) (FT/S)  
VIRGINIA KEY 93 88 290/ 7/ 11 1011.7S  
LAKE WORTH 83 86 10/ 14/ 15 1013.6R  
FOWEY ROCKS 89 86 330/ 6/ 7 1012.2F  
SETTLEMENT POINT 84 320/ 14/ 17 1012.1R  
 

 
 
 
 
CLICK HERE TO GO TO PREVIOUS BULLETINS.

The Nexlab FL Page Main Text Page